TimeICT,TemperatureF,Dew PointF,Humidity,Sea Level PressureIn,VisibilityMPH,Wind Direction,Wind SpeedMPH,Gust SpeedMPH,PrecipitationIn,Events,Conditions,WindDirDegrees,DateUTC
1:00 AM,78,63,51,29.78,5,NNW,2.3,,,,Haze,340,2013-02-07 18:00:00
4:00 AM,75.2,64.4,69,29.77,5.0,WNW,6.9,-,N/A,,Unknown,290,2013-02-07 21:00:00
5:00 AM,73.4,64.4,73,29.77,5.0,WNW,5.8,-,N/A,,Unknown,290,2013-02-07 22:00:00
6:00 AM,73.4,62.6,69,29.80,4.3,West,3.5,-,N/A,,Unknown,260,2013-02-07 23:00:00
7:00 AM,75,59,47,29.83,3,NW,5.8,,,,Haze,310,2013-02-08 00:00:00
7:00 AM,75.2,57.2,53,29.83,3.1,NW,5.8,-,N/A,,Mist,310,2013-02-08 00:00:00
8:00 AM,78.8,62.6,57,29.86,2.5,NNE,4.6,-,N/A,,Haze,20,2013-02-08 01:00:00
9:00 AM,82.4,64.4,54,29.86,3.7,Variable,2.3,-,N/A,,Haze,0,2013-02-08 02:00:00
10:00 AM,87.8,64.4,46,29.89,5.0,Variable,2.3,-,N/A,,Clear,0,2013-02-08 03:00:00
11:00 AM,91.4,64.4,41,29.86,-9999.0,ENE,5.8,-,N/A,,Clear,60,2013-02-08 04:00:00
12:00 PM,95.0,64.4,36,29.83,-9999.0,NE,6.9,-,N/A,,Clear,50,2013-02-08 05:00:00
1:00 PM,96,58,19,29.77,6,East,5.8,,,,,100,2013-02-08 06:00:00
1:00 PM,95.0,62.6,34,29.80,-9999.0,Variable,3.5,-,N/A,,Clear,0,2013-02-08 06:00:00
2:00 PM,98.6,62.6,30,29.77,-9999.0,Variable,4.6,-,N/A,,Clear,0,2013-02-08 07:00:00
3:00 PM,98.6,62.6,30,29.74,-9999.0,Variable,3.5,-,N/A,,Clear,0,2013-02-08 08:00:00
4:00 PM,98.6,62.6,30,29.74,-9999.0,Variable,2.3,-,N/A,,Clear,0,2013-02-08 09:00:00
5:00 PM,98.6,62.6,30,29.74,-9999.0,Calm,Calm,-,N/A,,Clear,0,2013-02-08 10:00:00
6:00 PM,91.4,62.6,38,29.77,-9999.0,SSE,2.3,-,N/A,,Clear,160,2013-02-08 11:00:00
7:00 PM,90,67,36,29.75,6,Calm,Calm,,,,Scattered Clouds,,2013-02-08 12:00:00
7:00 PM,89.6,64.4,43,29.77,6.2,SE,2.3,-,N/A,,Scattered Clouds,140,2013-02-08 12:00:00
8:00 PM,87.8,62.6,43,29.80,6.2,ESE,3.5,-,N/A,,Scattered Clouds,110,2013-02-08 13:00:00